Weather History for KMPV - January, 2013

Change the Weather History Date:

Friday, January 4, 2013

  Actual Average Record
Temperature  
Mean Temperature 16 °F 17 °F  
Max Temperature 30 °F 27 °F 66 °F (1950)
Min Temperature 1 °F 8 °F -34 °F (1981)
Degree Days  
Heating Degree Days 50 48  
Month to date heating degree days 190  
Since 1 July heating degree days 3338  
Cooling Degree Days 0 0  
Month to date cooling degree days 0  
Year to date cooling degree days 0  
Moisture  
Dew Point 18 °F    
Average Humidity 81    
Maximum Humidity 92    
Minimum Humidity 61    
Precipitation  
Precipitation 0.00 in 0.07 in 1.42 in (1982)
Month to date precipitation 0.29  
Year to date precipitation 0.29  
Sea Level Pressure  
Sea Level Pressure 29.81 in    
Wind  
Wind Speed 5 mph (WSW)    
Max Wind Speed 20 mph    
Max Gust Speed 31 mph    
Visibility 5 miles    
Events Snow    
T = Trace of Precipitation, MM = Missing Value Source: NWS Daily Summary

Daily Weather History Graph

Daily Weather History Graph

Search for Another Location

Airport or City:

Trip Planner

Search our weather history database for the weather conditions in past years. The results will help you decide how hot, cold, wet, or windy it might be!

Date:

Astronomy

Jan. 04, 2013 Rise Set
Actual Time 7:25 AM EST 4:25 PM EST
Civil Twilight 6:52 AM EST 4:58 PM EST
Nautical Twilight 6:16 AM EST 5:34 PM EST
Astronomical Twilight 5:41 AM EST 6:09 PM EST
Moon No Moon Rise 10:50 AM EST (1/4)
Length of Visible Light 10h 05m
Length of Day
8h 59m
Waning Gibbous, 55% of the Moon is Illuminated
Jan 4
Waning Gibbous
Jan 4
Last Quarter
Jan 11
New
Jan 18
First Quarter
Jan 26
Full

Hourly Weather History & Observations

Time (EST) Temp. Windchill Dew Point Humidity Pressure Visibility Wind Dir Wind Speed Gust Speed Precip Events Conditions
12:51 AM 1.9 °F - -2.0 °F 83% 29.96 in 10.0 mi Calm Calm - N/A   Overcast
1:51 AM 1.0 °F - -2.9 °F 83% 29.94 in 9.0 mi Calm Calm - N/A   Mostly Cloudy
2:51 AM 3.0 °F - -0.9 °F 84% 29.94 in 6.0 mi Calm Calm - 0.00 in Snow Light Snow
3:37 AM 3.2 °F - -0.4 °F 85% 29.85 in 2.0 mi Calm Calm - 0.00 in Snow Light Snow
3:51 AM 3.9 °F - 1.0 °F 88% 29.94 in 2.5 mi Calm Calm - 0.00 in Snow Light Snow
4:05 AM 3.2 °F - 1.4 °F 92% 29.85 in 3.0 mi Calm Calm - 0.00 in Snow Light Snow
4:51 AM 6.1 °F - 1.9 °F 83% 29.92 in 4.0 mi Calm Calm - 0.00 in Snow Light Snow
5:51 AM 7.0 °F - 3.9 °F 87% 29.93 in 4.0 mi Calm Calm - 0.00 in Snow Light Snow
6:27 AM 8.6 °F - 6.8 °F 92% 29.84 in 4.0 mi Calm Calm - 0.00 in Snow Light Snow
6:51 AM 10.0 °F - 7.0 °F 87% 29.92 in 8.0 mi Calm Calm - 0.00 in   Overcast
7:51 AM 14.0 °F 6.5 °F 12.0 °F 92% 29.88 in 8.0 mi South 4.6 mph - N/A   Overcast
8:37 AM 19.4 °F 9.5 °F 14.0 °F 80% 29.80 in 9.0 mi WSW 8.1 mph - N/A   Mostly Cloudy
8:51 AM 25.0 °F 18.1 °F 19.0 °F 78% 29.87 in 10.0 mi WSW 5.8 mph 18.4 mph N/A   Overcast
9:51 AM 28.0 °F 17.0 °F 19.9 °F 72% 29.86 in 8.0 mi SSW 13.8 mph 25.3 mph N/A   Overcast
10:44 AM 28.4 °F 17.5 °F 19.4 °F 69% 29.75 in 10.0 mi SW 13.8 mph 20.7 mph 0.00 in   Overcast
10:51 AM 28.9 °F 17.3 °F 19.0 °F 67% 29.81 in 9.0 mi SSW 16.1 mph 24.2 mph 0.00 in   Overcast
11:51 AM 30.0 °F 19.5 °F 18.0 °F 61% 29.81 in 6.0 mi WSW 13.8 mph 29.9 mph 0.00 in   Clear
12:51 PM 30.0 °F 20.5 °F 19.0 °F 64% 29.80 in 10.0 mi West 11.5 mph 21.9 mph 0.00 in   Overcast
1:51 PM 30.0 °F 19.1 °F 21.0 °F 69% 29.78 in 6.0 mi SW 15.0 mph 25.3 mph 0.00 in Snow Light Snow
2:47 PM 30.2 °F 22.6 °F 21.2 °F 69% 29.73 in 2.5 mi WSW 8.1 mph 17.3 mph 0.00 in Snow Light Snow
2:51 PM 30.0 °F 21.7 °F 21.9 °F 72% 29.79 in 2.5 mi WSW 9.2 mph - 0.00 in Snow Light Snow
3:20 PM 28.4 °F 21.2 °F 24.8 °F 86% 29.73 in 1.8 mi Variable 6.9 mph - 0.00 in Snow Light Snow
3:35 PM 28.4 °F 20.4 °F 24.8 °F 86% 29.73 in 1.0 mi WSW 8.1 mph 18.4 mph 0.00 in Snow Light Snow
3:51 PM 28.9 °F 23.9 °F 24.1 °F 82% 29.80 in 1.0 mi West 4.6 mph 19.6 mph 0.00 in Snow Light Snow
4:03 PM 28.4 °F 21.2 °F 24.8 °F 86% 29.74 in 0.8 mi West 6.9 mph - 0.00 in Snow Light Snow
4:12 PM 28.4 °F 23.3 °F 24.8 °F 86% 29.74 in 1.0 mi West 4.6 mph - 0.00 in Snow Light Snow
4:24 PM 28.4 °F 20.4 °F 24.8 °F 86% 29.73 in 1.5 mi West 8.1 mph - N/A Snow Light Snow
4:34 PM 28.4 °F 24.6 °F 24.8 °F 86% 29.74 in 2.5 mi Variable 3.5 mph - 0.00 in Snow Light Snow
4:42 PM 28.4 °F 24.6 °F 24.8 °F 86% 29.74 in 4.0 mi Variable 3.5 mph - 0.00 in Snow Light Snow
4:51 PM 28.4 °F 22.2 °F 24.8 °F 86% 29.73 in 5.0 mi Variable 5.8 mph - N/A Snow Light Snow
5:51 PM 28.9 °F 22.8 °F 24.1 °F 82% 29.81 in 7.0 mi West 5.8 mph - 0.00 in Snow Light Snow
6:18 PM 28.4 °F 23.3 °F 24.8 °F 86% 29.74 in 6.0 mi WSW 4.6 mph - 0.00 in Snow Light Snow
6:51 PM 28.9 °F 22.8 °F 24.1 °F 82% 29.81 in 6.0 mi WSW 5.8 mph - 0.00 in Snow Light Snow
7:51 PM 28.9 °F 22.8 °F 25.0 °F 85% 29.81 in 3.0 mi WSW 5.8 mph - 0.00 in Snow Light Snow
8:00 PM 28.4 °F 21.2 °F 24.8 °F 86% 29.75 in 1.8 mi West 6.9 mph - 0.00 in Snow Light Snow
8:19 PM 28.4 °F 17.5 °F 24.8 °F 86% 29.75 in 2.5 mi West 13.8 mph 20.7 mph 0.00 in Snow Light Snow
8:32 PM 28.4 °F 18.5 °F 24.8 °F 86% 29.75 in 1.5 mi West 11.5 mph 18.4 mph 0.00 in Snow Light Snow
8:49 PM 28.4 °F 17.5 °F 24.8 °F 86% 29.76 in 2.5 mi WNW 13.8 mph 21.9 mph 0.00 in Snow Light Snow
8:51 PM 28.9 °F 17.3 °F 25.0 °F 85% 29.81 in 2.5 mi WNW 16.1 mph 21.9 mph 0.00 in Snow Light Snow
8:58 PM 28.4 °F 17.5 °F 24.8 °F 86% 29.76 in 3.0 mi WNW 13.8 mph - 0.00 in Snow Light Snow
9:51 PM 28.9 °F 17.7 °F 24.1 °F 82% 29.81 in 3.0 mi WNW 15.0 mph 27.6 mph 0.00 in Snow Light Snow
10:49 PM 28.4 °F 15.4 °F 21.2 °F 74% 29.76 in 2.5 mi WNW 19.6 mph 29.9 mph 0.00 in Snow Light Snow
10:51 PM 28.9 °F 16.1 °F 21.9 °F 75% 29.81 in 2.0 mi WNW 19.6 mph 29.9 mph 0.00 in Snow Light Snow
11:02 PM 28.4 °F 17.5 °F 21.2 °F 74% 29.77 in 4.0 mi WNW 13.8 mph 28.8 mph 0.00 in Snow Light Snow
11:51 PM 30.0 °F 19.1 °F 19.9 °F 66% 29.81 in 6.0 mi West 15.0 mph 31.1 mph 0.00 in   Overcast